Wind_Speed
13 12 11 10 9 6 4 5 4 4 5 6 7 8 7 4 1 3 3 3 3 3 3 2 2 2 3 3 4 4 5 5 6 6 6 7 7 8 8 8 9 9 10 10 10 10 9 8 8
11 10 8 7 6 3 2 2 4 3 3 3 3 4 5 4 1 2 3 3 4 4 4 4 4 4 4 4 4 4 4 5 5 6 6 7 8 8 8 8 8 8 9 9 10 10 9 8 7
10 8 6 6 5 2 1 2 4 5 4 3 2 2 3 4 3 3 4 5 5 5 5 5 5 5 5 5 4 4 5 5 6 7 7 8 9 9 9 9 8 8 9 9 9 9 9 9 8
9 9 7 7 6 3 3 3 2 6 6 5 4 3 3 5 6 6 6 6 7 7 7 7 7 7 6 6 6 6 6 7 8 9 9 10 10 10 10 10 10 10 10 10 10 9 9 9 9
11 10 8 8 8 6 6 5 4 6 7 7 7 6 5 6 7 7 8 8 8 8 8 8 8 7 7 7 8 9 9 10 11 12 12 13 13 12 12 12 12 12 12 12 12 11 11 11 11
12 11 10 11 11 9 8 9 8 7 8 8 8 7 6 7 8 9 9 9 9 9 9 9 9 9 9 10 11 12 13 14 14 15 15 15 15 15 15 15 15 15 15 15 14 14 14 14 14
14 12 11 12 12 9 10 12 11 10 9 10 9 10 9 9 10 10 11 10 10 10 10 11 11 12 13 14 14 15 16 16 17 17 18 18 18 18 18 18 18 18 18 18 18 17 17 17 17
16 15 13 13 13 9 11 13 13 13 10 10 10 12 14 13 12 12 12 12 11 12 13 14 14 15 16 16 17 17 17 18 18 19 19 20 20 20 21 21 21 21 21 21 21 20 20 20 20
18 18 17 16 15 9 10 12 13 14 13 12 14 15 18 18 17 15 14 14 14 14 15 16 17 18 18 18 19 19 19 19 20 20 20 21 22 22 22 23 23 23 23 23 23 22 22 23 23
19 19 20 21 19 12 10 10 13 14 14 16 17 19 21 21 19 16 14 15 16 17 18 19 20 20 20 20 21 21 21 21 21 21 22 22 22 23 23 23 24 24 23 24 23 23 23 24 23
20 21 24 25 22 18 16 15 16 18 18 19 20 23 25 25 23 21 19 18 20 23 24 24 23 23 23 24 24 24 23 23 22 23 22 22 23 24 24 24 24 25 24 24 24 24 23 24 24
21 22 28 30 28 25 23 21 20 21 22 23 24 26 28 29 28 28 25 24 26 27 28 28 27 27 28 28 28 27 26 26 25 24 24 23 24 24 24 24 24 25 25 25 25 24 23 23 23
20 21 26 30 31 30 28 26 26 26 26 28 30 31 32 32 32 31 31 31 30 30 30 31 30 31 32 31 31 29 28 27 26 25 24 24 24 24 24 24 24 24 24 24 24 24 23 23 23
20 21 21 22 26 29 30 29 30 29 30 31 32 33 34 34 34 34 34 34 35 34 33 35 36 35 35 34 30 29 29 29 28 26 25 25 25 25 24 24 24 24 24 23 23 23 23 22 21
19 18 16 17 20 23 27 29 28 27 28 29 30 32 33 35 37 37 37 38 39 39 39 40 41 39 36 36 32 30 29 29 28 26 25 25 25 25 25 24 23 23 23 22 22 21 21 20 19
18 16 13 13 15 17 23 25 21 21 24 26 29 32 34 36 38 40 40 41 41 42 45 44 44 41 38 37 35 28 28 28 27 26 24 24 24 25 24 23 23 22 22 22 21 20 19 18 16
17 15 13 12 12 13 17 17 16 19 22 26 30 33 36 38 41 42 42 43 44 43 44 45 45 41 38 36 32 28 28 27 25 23 21 22 23 23 23 23 23 23 22 21 20 19 18 17 15
15 14 12 11 12 13 15 17 18 22 25 28 31 34 37 40 42 43 43 44 44 45 46 47 45 42 40 38 29 27 26 24 23 22 23 23 22 22 22 22 23 22 22 21 19 18 18 17 16
11 12 12 12 13 14 16 19 22 26 29 32 35 37 39 41 42 41 42 42 44 46 47 45 45 41 37 34 27 22 22 22 21 21 22 22 23 23 23 23 23 23 22 21 20 19 19 18 17
11 15 18 19 18 19 21 23 27 29 32 34 36 38 40 41 41 41 40 42 43 44 44 43 42 39 35 33 25 21 21 21 21 21 21 23 24 25 25 25 24 23 23 22 21 21 21 20 19
13 17 21 24 26 26 26 27 29 32 34 35 35 36 36 37 37 38 39 41 42 42 41 41 39 37 35 31 27 25 24 22 21 21 21 22 24 25 26 25 25 25 25 24 23 23 23 23 22
12 15 18 21 24 27 28 30 30 32 34 35 34 34 33 34 35 37 38 39 40 40 40 39 37 36 34 32 29 27 27 25 23 23 23 23 24 24 25 26 26 26 26 26 26 25 25 25 25
8 10 13 15 17 19 21 24 25 29 31 32 33 33 33 33 34 35 36 37 38 38 39 39 37 36 35 33 32 31 29 28 27 27 26 25 25 24 25 26 26 26 28 28 28 28 27 27 27
8 10 10 11 11 12 14 19 20 23 24 27 31 33 33 33 34 34 35 37 38 40 42 41 40 38 37 37 35 34 33 33 32 32 32 31 30 29 29 28 28 29 30 31 31 31 30 29 29
8 10 9 9 10 12 15 19 20 22 22 22 22 25 28 31 33 34 36 38 40 43 44 44 44 43 43 42 42 41 40 40 39 39 39 38 37 36 34 33 32 32 33 33 34 34 33 32 32
8 11 13 13 13 15 17 20 21 23 24 25 26 27 28 30 31 33 36 40 43 45 46 47 48 49 49 49 48 48 47 46 45 45 44 44 43 43 42 41 38 38 38 38 38 38 37 36 35
12 14 16 17 17 18 20 21 22 24 27 29 31 33 33 35 36 39 42 46 48 50 52 53 53 53 53 53 53 53 52 52 52 51 50 50 49 48 48 47 46 45 44 44 43 42 41 40 38
16 18 19 19 18 20 22 25 27 29 31 34 36 38 41 43 45 47 49 52 54 56 58 58 59 59 59 59 59 58 57 57 56 56 56 55 55 54 53 52 51 51 50 49 49 48 46 44 42
15 17 17 17 18 22 25 28 31 33 36 39 41 43 45 47 49 51 53 55 56 58 60 62 64 65 65 65 65 65 64 63 62 61 60 60 59 59 58 58 57 56 55 54 53 52 51 49 47
15 17 18 18 21 24 28 32 35 38 41 43 45 47 49 51 53 55 57 59 61 63 65 67 68 69 70 71 71 69 69 67 66 65 64 64 64 64 63 63 62 61 59 58 57 55 54 52 50
Wind_Direction
142 143 143 139 133 141 97 53 16 329 320 336 326 333 4 20 142 177 183 191 204 209 214 238 277 307 327 339 345 346 346 347 348 350 350 348 346 346 348 349 351 355 359 2 3 3 5 10 14
148 152 156 154 160 159 88 18 342 347 347 353 330 326 349 360 317 208 193 212 220 230 239 253 268 280 290 300 309 314 319 322 325 328 328 328 327 325 326 329 333 337 342 345 348 349 349 353 359
162 166 173 179 191 208 160 270 320 336 356 345 313 309 325 316 298 259 235 233 235 240 250 261 269 273 277 282 286 290 295 301 305 308 311 312 312 311 310 311 315 319 324 328 332 335 337 339 342
188 191 193 199 203 212 264 257 272 318 334 330 318 306 295 293 285 278 270 259 256 256 259 267 271 270 269 271 275 279 284 290 293 296 297 298 299 298 297 296 297 301 305 310 315 318 321 323 327
210 213 218 229 233 254 268 268 265 294 310 314 313 310 302 291 286 286 281 274 270 268 268 273 273 270 269 274 278 280 282 284 286 287 288 289 289 288 287 286 287 290 293 296 300 301 303 306 308
220 223 235 258 265 272 289 289 274 271 292 303 307 303 300 293 289 286 281 276 275 272 274 276 276 276 278 280 281 281 281 281 282 283 283 283 283 282 281 280 281 283 285 287 289 290 291 292 295
220 221 233 252 260 274 296 292 276 269 276 290 298 296 290 288 285 282 276 274 274 275 277 280 282 284 285 285 285 283 282 282 282 281 281 281 280 279 278 278 278 279 281 282 282 283 284 285 286
222 216 218 237 250 278 301 295 279 266 266 280 288 290 288 291 282 276 270 267 271 276 280 283 287 288 288 288 287 285 283 282 281 281 280 279 279 278 277 277 278 278 279 279 280 281 281 282 282
228 219 216 229 241 265 291 283 275 269 281 284 283 292 294 294 287 275 267 266 272 277 282 286 289 290 289 288 287 286 285 284 282 281 279 278 277 277 277 278 278 278 279 279 279 280 281 281 282
232 221 220 233 241 246 264 267 270 273 285 290 293 298 301 297 295 281 272 271 278 281 283 284 286 287 288 288 288 287 287 286 285 283 281 279 278 278 278 278 278 278 278 279 279 279 279 279 280
235 220 221 231 237 239 243 250 258 269 278 285 293 296 298 297 299 294 283 279 281 281 281 281 281 283 284 286 286 288 289 290 289 287 284 282 280 278 277 278 278 278 278 278 279 279 278 278 279
245 227 224 231 237 238 240 243 251 261 272 281 287 290 292 294 296 293 290 289 287 283 279 276 276 279 282 285 286 287 289 291 291 290 287 284 282 279 279 278 278 277 277 278 279 278 278 277 276
256 245 239 242 245 247 248 248 248 257 269 276 280 283 286 289 291 291 291 291 289 286 281 279 276 277 279 281 280 281 284 287 289 288 286 283 279 279 281 279 277 275 274 275 275 274 274 275 276
255 255 253 255 256 254 255 255 253 255 262 269 273 277 281 284 287 288 291 292 290 288 282 278 276 272 271 272 268 274 279 282 283 281 279 277 276 276 276 275 275 274 272 271 269 269 270 271 272
258 261 260 257 256 255 254 254 255 257 260 264 269 273 278 282 284 287 290 293 293 292 287 281 275 271 267 266 263 266 270 275 276 274 273 274 275 276 276 276 276 274 272 270 268 266 266 267 268
252 250 246 248 251 251 251 255 256 255 260 264 268 272 277 281 284 288 291 294 294 294 292 284 275 269 273 273 272 267 270 270 274 272 270 271 274 277 277 278 277 275 271 269 267 265 264 264 265
244 237 230 227 234 236 245 252 249 256 263 266 269 273 277 281 284 288 290 292 295 296 296 291 285 281 282 279 271 272 270 272 274 276 274 275 279 277 277 276 274 272 269 267 264 261 259 259 261
237 235 228 225 231 237 244 249 254 258 262 265 268 272 277 280 285 289 291 294 296 298 299 297 295 295 291 287 282 276 266 271 271 278 279 283 284 282 278 274 270 268 265 262 260 258 256 255 257
235 235 230 232 236 238 242 246 245 248 254 260 265 270 276 282 286 290 293 295 297 299 300 301 298 298 297 298 286 278 277 279 280 281 282 283 286 283 277 273 268 264 261 258 256 256 255 254 255
238 237 232 230 238 240 236 236 239 244 250 256 263 268 274 280 284 288 293 297 297 301 304 302 303 301 303 303 297 290 291 291 285 286 284 282 282 281 276 272 265 260 257 254 252 253 255 255 256
239 241 239 235 237 244 248 249 252 255 258 262 264 268 273 278 284 288 293 296 297 300 304 304 306 305 305 308 306 300 295 291 290 288 288 284 281 277 272 267 262 257 254 253 252 254 255 256 257
252 254 256 251 247 247 252 259 263 267 268 267 268 269 272 276 282 287 290 292 294 297 300 303 305 306 306 306 303 298 293 292 290 290 286 281 280 277 269 264 260 257 253 252 253 254 256 258 260
284 280 278 270 261 256 257 266 272 276 276 271 270 271 272 276 279 282 285 289 292 296 300 302 303 304 304 303 301 298 293 290 287 285 283 279 277 275 270 264 260 258 255 253 254 254 256 258 261
313 308 298 289 283 274 273 279 286 293 291 282 275 272 273 276 278 279 282 286 292 296 299 301 302 303 301 299 297 294 290 288 285 282 279 276 273 271 270 265 259 257 256 255 256 256 257 258 260
322 322 314 299 296 299 299 301 304 307 307 309 297 288 289 288 284 281 282 287 293 296 299 300 301 300 299 297 294 290 287 284 282 279 277 275 271 268 265 263 259 257 256 255 256 257 258 259 261
329 325 323 323 324 321 317 317 319 316 316 320 320 318 310 305 294 290 287 289 292 294 297 298 299 298 296 294 291 288 286 283 280 278 275 273 270 267 264 261 259 256 255 255 255 256 258 260 262
315 310 311 312 316 319 323 324 324 320 320 320 319 318 314 310 305 301 298 297 297 298 298 298 297 295 293 291 289 286 284 282 279 277 274 272 269 267 264 262 259 256 254 254 253 254 256 259 261
312 308 307 305 310 319 323 326 326 323 321 320 318 316 313 311 309 307 305 305 303 302 301 300 297 295 293 290 288 286 283 280 278 275 273 270 268 266 264 262 260 258 256 254 253 253 254 256 258
316 315 314 312 312 317 322 324 324 323 321 320 318 315 313 311 310 309 307 306 304 303 301 300 298 296 294 292 289 287 284 280 277 274 271 269 267 265 263 261 260 258 257 255 254 253 254 254 256
314 319 323 323 323 321 321 320 321 321 320 319 318 316 315 314 313 311 309 307 305 304 302 300 298 296 294 292 290 288 286 283 280 276 272 269 266 263 261 260 259 258 257 256 255 254 253 253 253
Height
5931 5931 5931 5931 5931 5930 5929 5929 5929 5930 5930 5929 5928 5926 5926 5927 5927 5928 5925 5923 5923 5922 5921 5921 5920 5920 5919 5918 5918 5918 5917 5916 5915 5914 5913 5912 5911 5910 5909 5907 5906 5905 5904 5902 5901 5900 5899 5898 5897
5932 5931 5932 5931 5930 5929 5928 5927 5928 5929 5930 5929 5928 5927 5926 5925 5925 5925 5924 5923 5922 5922 5921 5920 5920 5919 5919 5918 5917 5917 5916 5915 5914 5913 5912 5911 5910 5909 5908 5907 5905 5904 5903 5902 5901 5899 5898 5897 5897
5931 5931 5932 5931 5930 5929 5927 5926 5926 5927 5928 5929 5928 5927 5926 5925 5924 5924 5924 5923 5922 5922 5921 5920 5919 5919 5918 5917 5916 5916 5915 5914 5913 5912 5911 5910 5909 5908 5907 5905 5904 5903 5902 5901 5900 5898 5897 5896 5896
5931 5931 5931 5931 5929 5927 5925 5924 5923 5925 5925 5926 5926 5926 5926 5925 5924 5924 5923 5922 5921 5921 5920 5919 5919 5918 5917 5916 5915 5914 5914 5913 5911 5910 5909 5908 5907 5906 5905 5904 5903 5902 5901 5899 5898 5897 5896 5895 5894
5930 5930 5930 5929 5927 5925 5924 5922 5921 5923 5923 5924 5924 5925 5924 5923 5922 5922 5921 5921 5920 5920 5919 5918 5918 5917 5916 5915 5914 5913 5912 5910 5909 5908 5907 5905 5904 5904 5903 5901 5901 5900 5899 5898 5897 5896 5895 5894 5893
5928 5929 5929 5927 5926 5924 5923 5921 5920 5920 5920 5921 5922 5923 5923 5922 5921 5920 5920 5920 5919 5918 5918 5917 5916 5916 5915 5913 5912 5911 5909 5908 5906 5905 5903 5902 5901 5900 5899 5898 5898 5897 5896 5895 5894 5893 5893 5892 5891
5927 5927 5926 5925 5923 5922 5921 5919 5918 5917 5918 5920 5920 5921 5921 5921 5920 5919 5918 5918 5918 5917 5917 5916 5915 5914 5912 5911 5909 5907 5906 5904 5902 5901 5900 5898 5897 5896 5895 5894 5894 5893 5892 5891 5891 5890 5890 5889 5888
5923 5924 5923 5921 5920 5919 5919 5917 5916 5915 5914 5916 5917 5917 5918 5919 5919 5917 5916 5916 5916 5915 5915 5914 5912 5911 5909 5907 5905 5903 5901 5900 5898 5897 5895 5894 5893 5891 5891 5890 5889 5888 5888 5887 5886 5886 5885 5884 5884
5920 5922 5919 5918 5916 5916 5916 5915 5913 5913 5912 5913 5914 5915 5915 5915 5915 5916 5915 5914 5913 5913 5912 5911 5909 5907 5905 5903 5901 5899 5897 5895 5893 5891 5890 5888 5887 5886 5885 5884 5884 5883 5882 5882 5881 5881 5880 5879 5879
5916 5918 5917 5915 5913 5913 5913 5913 5911 5910 5910 5910 5910 5911 5911 5911 5912 5913 5914 5914 5912 5910 5909 5907 5905 5903 5901 5898 5896 5894 5892 5890 5888 5886 5884 5883 5881 5880 5879 5878 5878 5877 5877 5876 5876 5875 5875 5874 5873
5911 5914 5913 5911 5909 5909 5910 5910 5909 5907 5907 5908 5908 5908 5908 5908 5909 5910 5911 5911 5910 5907 5905 5902 5899 5897 5894 5892 5890 5888 5886 5884 5882 5880 5878 5877 5875 5874 5873 5872 5872 5871 5870 5870 5870 5870 5869 5869 5868
5907 5908 5907 5906 5905 5905 5906 5908 5907 5906 5906 5905 5906 5905 5905 5905 5905 5905 5905 5905 5904 5901 5899 5895 5891 5890 5887 5885 5883 5881 5880 5878 5876 5874 5872 5870 5869 5868 5867 5866 5866 5865 5864 5864 5864 5864 5863 5863 5862
5902 5904 5903 5903 5902 5902 5903 5904 5904 5904 5903 5902 5902 5902 5902 5901 5900 5899 5897 5895 5895 5894 5891 5888 5883 5881 5878 5875 5873 5873 5873 5871 5869 5868 5866 5864 5862 5861 5860 5860 5860 5859 5859 5858 5858 5857 5857 5857 5857
5897 5898 5900 5901 5901 5900 5900 5901 5901 5901 5900 5899 5898 5898 5897 5895 5894 5893 5891 5890 5888 5885 5883 5880 5875 5869 5866 5863 5861 5863 5863 5863 5862 5861 5858 5857 5856 5855 5854 5853 5853 5852 5852 5852 5852 5852 5852 5852 5851
5893 5894 5896 5896 5895 5895 5895 5895 5896 5896 5895 5894 5893 5892 5891 5890 5887 5887 5886 5884 5881 5878 5875 5871 5865 5859 5855 5854 5849 5850 5852 5853 5853 5851 5850 5849 5848 5848 5847 5846 5845 5845 5845 5845 5845 5846 5846 5846 5846
5888 5889 5890 5890 5889 5889 5889 5889 5892 5891 5890 5889 5888 5887 5885 5883 5882 5881 5880 5877 5874 5870 5866 5861 5853 5846 5846 5844 5839 5839 5842 5842 5843 5842 5841 5840 5840 5841 5840 5839 5839 5838 5838 5839 5839 5839 5840 5840 5841
5883 5884 5884 5885 5884 5883 5883 5884 5886 5885 5885 5884 5883 5881 5880 5878 5877 5876 5874 5871 5867 5862 5858 5851 5845 5839 5835 5834 5832 5832 5833 5835 5835 5834 5833 5833 5834 5835 5835 5833 5833 5833 5833 5833 5833 5833 5834 5835 5836
5879 5880 5880 5880 5880 5880 5879 5880 5881 5880 5880 5879 5878 5877 5874 5872 5871 5869 5867 5865 5861 5856 5850 5844 5837 5833 5827 5826 5825 5825 5826 5827 5827 5827 5827 5828 5828 5828 5828 5828 5827 5827 5827 5827 5827 5828 5829 5830 5831
5876 5876 5876 5876 5876 5876 5876 5876 5876 5875 5874 5873 5872 5871 5869 5867 5865 5863 5861 5858 5853 5849 5843 5837 5831 5827 5821 5821 5821 5820 5820 5821 5821 5822 5822 5821 5821 5821 5821 5821 5821 5821 5821 5822 5822 5823 5824 5825 5826
5872 5871 5871 5872 5872 5872 5871 5871 5870 5869 5868 5867 5866 5865 5863 5862 5859 5857 5854 5850 5846 5841 5835 5831 5825 5822 5819 5818 5815 5814 5816 5816 5816 5817 5816 5816 5815 5815 5815 5815 5815 5815 5816 5816 5817 5817 5818 5819 5820
5868 5867 5867 5867 5868 5868 5868 5867 5866 5865 5863 5862 5860 5859 5857 5855 5853 5850 5847 5843 5840 5836 5832 5827 5822 5819 5817 5814 5812 5811 5811 5811 5811 5811 5811 5810 5809 5808 5808 5808 5808 5808 5809 5810 5810 5811 5812 5813 5814
5865 5864 5863 5863 5863 5863 5864 5863 5862 5860 5858 5856 5854 5852 5850 5848 5846 5843 5840 5836 5833 5829 5825 5821 5818 5815 5811 5809 5807 5806 5805 5805 5805 5804 5804 5804 5802 5801 5801 5800 5800 5801 5801 5802 5803 5804 5805 5806 5807
5862 5861 5860 5859 5859 5859 5859 5858 5857 5853 5850 5848 5847 5845 5843 5841 5839 5836 5832 5829 5825 5821 5818 5814 5811 5808 5805 5803 5801 5799 5798 5797 5797 5796 5796 5796 5795 5794 5793 5792 5792 5793 5793 5794 5795 5796 5796 5798 5799
5859 5858 5857 5856 5855 5855 5854 5853 5851 5848 5844 5841 5839 5837 5836 5833 5831 5828 5825 5821 5817 5813 5809 5806 5802 5800 5797 5795 5793 5791 5789 5788 5787 5787 5787 5787 5786 5785 5785 5784 5784 5784 5784 5785 5785 5786 5788 5789 5790
5858 5857 5855 5853 5852 5852 5850 5848 5847 5843 5839 5836 5833 5830 5829 5826 5822 5819 5817 5813 5809 5804 5800 5796 5792 5789 5786 5784 5782 5781 5779 5778 5777 5776 5775 5775 5775 5774 5774 5775 5775 5775 5775 5775 5776 5777 5778 5779 5781
5856 5855 5853 5851 5849 5847 5846 5843 5842 5839 5835 5832 5828 5825 5822 5818 5814 5811 5808 5804 5799 5794 5790 5785 5780 5776 5773 5770 5768 5767 5765 5764 5763 5762 5762 5761 5761 5761 5761 5761 5762 5763 5764 5765 5766 5767 5768 5769 5771
5854 5853 5851 5849 5846 5844 5841 5839 5837 5833 5829 5825 5821 5817 5813 5809 5805 5801 5797 5791 5786 5780 5775 5771 5766 5762 5758 5754 5751 5750 5748 5747 5746 5745 5745 5745 5745 5745 5746 5746 5747 5749 5750 5752 5753 5755 5757 5758 5760
5852 5851 5848 5845 5843 5840 5838 5834 5831 5827 5822 5818 5814 5808 5804 5799 5794 5788 5783 5777 5770 5764 5758 5752 5748 5744 5740 5736 5733 5731 5728 5727 5726 5725 5725 5726 5726 5727 5728 5729 5731 5733 5735 5737 5739 5742 5744 5746 5749
5850 5848 5845 5842 5839 5836 5833 5832 5826 5821 5816 5811 5805 5800 5795 5789 5783 5777 5771 5764 5757 5750 5743 5735 5729 5723 5718 5714 5710 5708 5705 5704 5703 5703 5703 5704 5705 5706 5708 5710 5712 5715 5717 5720 5723 5726 5730 5733 5736
5848 5845 5842 5840 5836 5833 5829 5828 5820 5815 5809 5803 5797 5790 5784 5777 5770 5764 5757 5749 5741 5733 5726 5718 5710 5704 5697 5691 5687 5683 5679 5677 5676 5676 5677 5679 5681 5683 5686 5688 5691 5694 5698 5701 5705 5709 5713 5717 5722